カタログに戻る

STARLINK-3612

運用中通信VLEO
NORAD 51770·PAYLOAD·🇺🇸 United States

打ち上げ Feb 25, 2022 から Vandenberg Space Force Base

Loading…

次のパス (今後24時間)

TLE

最新Source: CelesTrak SupGP

元期: Sep 15, 2026, 02:08 UTC

1 51770C 22017C   26258.08937500 -.00276700  00000+0 -83873-2 0  2589
2 51770  53.1582 197.1359 0001354  91.2034 350.7855 15.33720618    13

AllMySatでSTARLINK-3612をリアルタイム追跡

Download on the App Store